Home   Weather   Karlstad   Past weeks

Flag for Sweden Past Weather in Karlstad, Sweden — Yesterday and Last 2 Weeks

Now
34 °F

Light rain. Partly sunny.


Feels Like: 25 °F
Forecast: 33 / 45 °F
Wind: 12 mph from North

Location: Karlstad

Current Time: Apr 25, 2017 at 8:51:20 am

Latest Report: Apr 25, 2017 at 8:20 am


Visibility: 4 mi

Pressure: 29.27 "Hg

Humidity: 100%

Dew Point: 34 °F

Location of KarlstadLocation

Past Weather in Karlstad — Graph

°F

Karlstad Temperature Yesterday

Maximum temperature yesterday: 39 °F (at 4:50 pm)
Minimum temperature yesterday: 28 °F (at 1:50 am)
Average temperature yesterday: 34 °F

High & Low Weather Summary for the Past Weeks

 TemperatureHumidityPressure
High54 °F (Apr 21, 11:20 am)100% (Apr 10, 8:20 am)30.54 "Hg (Apr 10, 8:20 am)
Low18 °F (Apr 15, 3:20 am)23% (Apr 11, 5:50 pm)29.21 "Hg (Apr 24, 6:20 pm)
Average37 °F70%29.82 "Hg
* Reported Apr 10 7:20 am — Apr 25 7:50 am, Karlstad, Weather by CustomWeather, © 2017

Note: Actual official high and low records may vary slightly from our data, if they occured in-between our weather recording intervals... More about our weather records

Advertising

Karlstad Weather History for the Previous 24 Hours

Scroll right to see more
 ConditionsComfort  
Time TempWeatherWind HumidityBarometerVisibility
7:50 am
Tue, Apr 25
34 °FLight rain. Partly sunny.8 mph100%29.24 "Hg2 mi
7:20 am32 °FLight rain. Partly sunny.6 mph100%29.24 "HgN/A
6:50 am32 °FPartly sunny.7 mph100%29.24 "HgN/A
6:20 am32 °FPartly sunny.6 mph100%29.24 "HgN/A
5:50 am32 °FMore clouds than sun.3 mph100%29.24 "Hg4 mi
5:20 am32 °FLight snow. Partly cloudy.3 mph100%29.24 "Hg1 mi
4:20 am30 °FIce fog.3 mph100%29.24 "Hg1 mi
3:50 am30 °FIce fog.5 mph100%29.21 "Hg0 mi
3:20 am30 °FIce fog.2 mph100%29.24 "Hg1 mi
2:50 am32 °FOvercast.No wind100%29.24 "HgN/A
2:20 am32 °FOvercast.No wind100%29.24 "HgN/A
1:50 am32 °FMostly cloudy.3 mph100%29.24 "HgN/A
1:20 am30 °FOvercast.2 mph100%29.24 "HgN/A
12:50 am32 °FPassing clouds.1 mph100%29.24 "HgN/A
12:20 am32 °FPartly cloudy.2 mph100%29.24 "HgN/A
11:50 pm
Mon, Apr 24
32 °FPartly cloudy.No wind100%29.24 "HgN/A
11:20 pm34 °FPassing clouds.3 mph100%29.24 "HgN/A
10:50 pm34 °FPassing clouds.5 mph100%29.24 "HgN/A
10:20 pm34 °FPartly cloudy.6 mph100%29.24 "HgN/A
9:50 pm36 °FPartly cloudy.7 mph100%29.24 "HgN/A
9:20 pm36 °FScattered showers. Partly cloudy.1 mph100%29.24 "HgN/A
8:50 pm36 °FLight rain. Partly cloudy.6 mph100%29.24 "HgN/A
8:20 pm36 °FBroken clouds.3 mph100%29.24 "HgN/A
7:50 pm34 °FLight rain. Partly sunny.5 mph100%29.24 "HgN/A
7:20 pm34 °FLight rain. Broken clouds.8 mph100%29.21 "HgN/A
6:50 pm37 °FLight rain. Partly sunny.13 mph100%29.21 "Hg5 mi
6:20 pm37 °FLight rain. Partly sunny.7 mph100%29.21 "Hg5 mi
5:50 pm37 °FLight rain. Broken clouds.8 mph100%29.24 "HgN/A
5:20 pm37 °FRain. Broken clouds.9 mph100%29.24 "Hg4 mi
4:50 pm39 °FLow clouds.12 mph100%29.24 "HgN/A
4:20 pm37 °FRain. Partly sunny.12 mph100%29.27 "Hg5 mi
3:50 pm37 °FLight rain. Partly sunny.12 mph100%29.27 "Hg5 mi
3:20 pm36 °FPartly sunny.10 mph100%29.30 "HgN/A
2:50 pm34 °FPartly sunny.12 mph100%29.30 "HgN/A
1:50 pm34 °FLight snow. Mostly cloudy.14 mph100%29.33 "Hg1 mi
1:20 pm34 °FSnow. Partly sunny.13 mph100%29.36 "Hg1 mi
12:50 pm34 °FSnow. Partly sunny.12 mph100%29.36 "Hg1 mi
12:20 pm32 °FSnow. Partly sunny.12 mph100%29.39 "Hg1 mi
11:50 am32 °FSnow. Low clouds.10 mph100%29.42 "Hg0 mi
11:20 am32 °FSnow. Low clouds.12 mph100%29.42 "Hg1 mi
10:50 am32 °FSnow. Low clouds.12 mph100%29.45 "Hg1 mi
10:20 am32 °FSnow. Low clouds.14 mph100%29.47 "Hg0 mi
9:50 am34 °FRain. Low clouds.16 mph100%29.50 "Hg1 mi
9:20 am36 °FRain. Partly sunny.15 mph93%29.50 "Hg4 mi
8:50 am37 °FLight rain. Partly sunny.14 mph93%29.53 "Hg5 mi
8:20 am37 °FLight rain. Partly sunny.12 mph93%29.56 "HgN/A
Weather by CustomWeather, © 2017

See weather overviewHow to use our weather pages